Canadian, TX

3:28 PM CST on December 08, 2019 (GMT -0600)
Hemphill County

Weather History for KHHF - October, 2019

Change the Weather History Date:

Thursday, October 17, 2019

  Actual Average (KPPA) Record (KPPA)
Temperature  
Mean Temperature 61 °F -  
Max Temperature 83 °F 70 °F 97 °F (2016)
Min Temperature 39 °F 44 °F 30 °F (1976)
Degree Days  
Heating Degree Days 4    
Growing Degree Days 11 (Base 50)    
Moisture  
Dew Point 35 °F    
Average Humidity 43    
Maximum Humidity 84    
Minimum Humidity 16    
Precipitation  
Precipitation 0.00 in - - ()
Sea Level Pressure  
Sea Level Pressure 29.91 in    
Wind  
Wind Speed 9 mph (SSW)    
Max Wind Speed 23 mph    
Max Gust Speed 33 mph    
Visibility 10 miles    
Events      
Averages and records for this station are not official NWS values.
T = Trace of Precipitation, MM = Missing Value Source: NWS Daily Summary

Daily Weather History Graph

Daily Weather History Graph

Search for Another Location

Airport or City:

Astronomy

Oct. 17, 2019 Rise Set
Actual Time 7:49 AM CDT 7:03 PM CDT
Civil Twilight 7:24 AM CDT 7:29 PM CDT
Nautical Twilight 6:54 AM CDT 7:59 PM CDT
Astronomical Twilight 6:24 AM CDT 8:28 PM CDT
Moon 9:42 PM CDT (10/17) 11:17 AM CDT (10/17)
Length of Visible Light 12h 05m
Length of Day
11h 13m
Waning Gibbous, 86% of the Moon is Illuminated
Oct 17
Waning Gibbous
Oct 21
Last Quarter
Oct 27
New
Nov 4
First Quarter
Nov 12
Full

Hourly Weather History & Observations

Time (CDT) Temp. Windchill Dew Point Humidity Pressure Visibility Wind Dir Wind Speed Gust Speed Precip Events Conditions
12:15 AM 51.1 °F - 34.7 °F 54% 30.06 in 10.0 mi SW 8.1 mph - N/A   Clear
12:35 AM 48.9 °F - 34.9 °F 58% 30.05 in 10.0 mi SW 5.8 mph - N/A   Clear
12:55 AM 48.2 °F - 34.9 °F 60% 30.05 in 10.0 mi WSW 6.9 mph - N/A   Clear
1:15 AM 49.5 °F - 34.7 °F 57% 30.05 in 10.0 mi SW 8.1 mph - N/A   Clear
1:35 AM 54.0 °F - 33.8 °F 46% 30.05 in 10.0 mi SW 10.4 mph 16.1 mph N/A   Clear
1:55 AM 46.6 °F - 34.5 °F 63% 30.04 in 10.0 mi West 3.5 mph - N/A   Clear
2:15 AM 46.8 °F - 34.7 °F 63% 30.04 in 10.0 mi WSW 5.8 mph - N/A   Clear
2:35 AM 48.2 °F - 34.7 °F 60% 30.04 in 10.0 mi WSW 4.6 mph - N/A   Clear
2:55 AM 48.2 °F - 34.7 °F 60% 30.04 in 10.0 mi West 4.6 mph - N/A   Clear
3:15 AM 48.4 °F - 34.7 °F 59% 30.03 in 10.0 mi WSW 4.6 mph - N/A   Clear
3:35 AM 46.9 °F - 34.9 °F 63% 30.02 in 10.0 mi SW 5.8 mph - N/A   Clear
3:55 AM 44.8 °F - 34.5 °F 67% 30.02 in 10.0 mi Calm Calm - N/A   Clear
4:15 AM 43.7 °F - 34.3 °F 70% 30.01 in 10.0 mi Calm Calm - N/A   Clear
4:35 AM 43.2 °F 41.5 °F 35.1 °F 73% 30.02 in 10.0 mi NNW 3.5 mph - N/A   Clear
4:55 AM 44.1 °F - 34.9 °F 70% 30.01 in 10.0 mi Calm Calm - N/A   Clear
5:15 AM 44.8 °F - 34.9 °F 68% 30.01 in 10.0 mi Calm Calm - N/A   Clear
5:35 AM 43.0 °F - 34.9 °F 73% 30.01 in 10.0 mi Calm Calm - N/A   Clear
5:55 AM 43.0 °F - 35.1 °F 74% 30.00 in 10.0 mi Calm Calm - N/A   Clear
6:15 AM 42.3 °F - 34.9 °F 75% 29.99 in 10.0 mi Calm Calm - N/A   Clear
6:35 AM 39.7 °F - 34.5 °F 82% 30.00 in 10.0 mi Calm Calm - N/A   Clear
6:55 AM 43.0 °F - 35.1 °F 74% 30.00 in 10.0 mi Calm Calm - N/A   Clear
7:15 AM 39.7 °F - 33.6 °F 79% 30.00 in 10.0 mi Calm Calm - N/A   Clear
7:35 AM 41.5 °F 39.6 °F 34.5 °F 76% 29.99 in 10.0 mi WSW 3.5 mph - N/A   Clear
7:55 AM 40.5 °F - 34.3 °F 79% 29.98 in 10.0 mi Calm Calm - N/A   Clear
8:15 AM 39.4 °F - 34.3 °F 82% 29.99 in 10.0 mi Calm Calm - N/A   Clear
8:35 AM 40.1 °F - 35.6 °F 84% 29.99 in 10.0 mi Calm Calm - N/A   Clear
8:55 AM 42.8 °F - 36.7 °F 79% 29.99 in 10.0 mi Calm Calm - N/A   Clear
9:15 AM 50.5 °F - 36.9 °F 59% 29.98 in 10.0 mi SW 9.2 mph - N/A   Clear
9:35 AM 57.7 °F - 36.1 °F 44% 29.99 in 10.0 mi SSW 9.2 mph - N/A   Clear
9:55 AM 61.0 °F - 35.1 °F 38% 29.98 in 10.0 mi SSW 10.4 mph 17.3 mph N/A   Clear
10:15 AM 63.1 °F - 35.2 °F 35% 29.98 in 10.0 mi SSW 11.5 mph - N/A   Clear
10:35 AM 65.3 °F - 35.8 °F 34% 29.97 in 10.0 mi SW 13.8 mph - N/A   Clear
10:55 AM 67.6 °F - 36.1 °F 31% 29.96 in 10.0 mi SW 13.8 mph 18.4 mph N/A   Clear
11:15 AM 70.0 °F - 36.5 °F 29% 29.95 in 10.0 mi SSW 16.1 mph 20.7 mph N/A   Clear
11:40 AM 71.8 °F - 36.5 °F 28% 29.94 in 10.0 mi SSW 13.8 mph 20.7 mph N/A   Clear
11:55 AM 73.4 °F - 36.5 °F 26% 29.92 in 10.0 mi SSW 15.0 mph 21.9 mph N/A   Clear
12:15 PM 75.7 °F - 35.8 °F 23% 29.92 in 10.0 mi SW 15.0 mph 21.9 mph N/A   Clear
12:40 PM 77.9 °F - 35.6 °F 22% 29.91 in 10.0 mi SSW 16.1 mph 19.6 mph N/A   Clear
12:55 PM 79.5 °F - 36.1 °F 21% 29.90 in 10.0 mi SSW 16.1 mph 20.7 mph N/A   Clear
1:15 PM 81.1 °F - 33.3 °F 18% 29.88 in 10.0 mi SW 16.1 mph 21.9 mph N/A   Clear
1:35 PM 81.5 °F - 34.2 °F 18% 29.88 in 10.0 mi SW 15.0 mph 21.9 mph N/A   Clear
1:55 PM 82.4 °F - 35.6 °F 19% 29.86 in 10.0 mi SSW 17.3 mph 21.9 mph N/A   Clear
2:15 PM 82.4 °F - 35.1 °F 18% 29.85 in 10.0 mi SSW 17.3 mph 24.2 mph N/A   Clear
2:35 PM 82.8 °F - 35.6 °F 18% 29.84 in 10.0 mi SSW 16.1 mph 25.3 mph N/A   Clear
2:55 PM 82.9 °F - 35.2 °F 18% 29.83 in 10.0 mi SSW 18.4 mph 25.3 mph N/A   Clear
3:15 PM 83.1 °F - 36.7 °F 19% 29.82 in 10.0 mi South 19.6 mph 25.3 mph N/A   Clear
3:35 PM 83.1 °F - 36.9 °F 19% 29.81 in 10.0 mi SSW 20.7 mph 28.8 mph N/A   Clear
3:55 PM 83.3 °F - 35.6 °F 18% 29.81 in 10.0 mi SSW 15.0 mph 25.3 mph N/A   Clear
4:15 PM 83.5 °F - 34.9 °F 18% 29.80 in 10.0 mi SSW 20.7 mph 26.5 mph N/A   Clear
4:35 PM 82.6 °F - 34.0 °F 17% 29.80 in 10.0 mi South 23.0 mph 27.6 mph N/A   Clear
4:55 PM 81.7 °F - 32.4 °F 17% 29.79 in 10.0 mi SSW 16.1 mph 26.5 mph N/A   Clear
5:15 PM 82.9 °F - 32.7 °F 16% 29.79 in 10.0 mi South 18.4 mph 25.3 mph N/A   Clear
5:35 PM 80.1 °F - 37.2 °F 21% 29.78 in 10.0 mi South 15.0 mph 21.9 mph N/A   Clear
6:15 PM 78.1 °F - 39.2 °F 25% 29.77 in 10.0 mi South 17.3 mph 24.2 mph N/A   Clear
6:35 PM 76.3 °F - 39.6 °F 27% 29.77 in 10.0 mi South 12.7 mph 20.7 mph N/A   Clear
6:55 PM 75.2 °F - 40.3 °F 28% 29.77 in 10.0 mi South 9.2 mph - N/A   Clear
7:15 PM 72.9 °F - 40.1 °F 31% 29.77 in 10.0 mi South 15.0 mph 20.7 mph N/A   Clear
7:35 PM 72.5 °F - 41.2 °F 32% 29.77 in 10.0 mi South 13.8 mph 23.0 mph N/A   Clear
7:55 PM 71.6 °F - 41.9 °F 34% 29.78 in 10.0 mi South 13.8 mph 20.7 mph N/A   Clear
8:15 PM 70.7 °F - 41.9 °F 35% 29.77 in 10.0 mi South 17.3 mph 23.0 mph N/A   Clear
8:35 PM 70.0 °F - 41.4 °F 35% 29.78 in 10.0 mi South 18.4 mph 24.2 mph N/A   Clear
8:55 PM 70.0 °F - 40.6 °F 34% 29.77 in 10.0 mi South 15.0 mph 27.6 mph N/A   Clear
9:15 PM 69.8 °F - 38.7 °F 32% 29.79 in 10.0 mi South 16.1 mph 24.2 mph N/A   Clear
9:35 PM 68.5 °F - 35.2 °F 29% 29.79 in 10.0 mi South 18.4 mph 24.2 mph N/A   Clear
9:55 PM 68.0 °F - 32.4 °F 27% 29.79 in 10.0 mi South 17.3 mph 26.5 mph N/A   Clear
10:15 PM 67.5 °F - 31.1 °F 26% 29.79 in 10.0 mi South 21.9 mph 29.9 mph N/A   Clear
10:35 PM 66.4 °F - 30.7 °F 26% 29.79 in 10.0 mi South 20.7 mph 28.8 mph N/A   Clear
10:55 PM 65.7 °F - 29.8 °F 26% 29.78 in 10.0 mi South 19.6 mph 28.8 mph N/A   Clear
11:15 PM 65.3 °F - 29.8 °F 26% 29.77 in 10.0 mi South 20.7 mph 28.8 mph N/A   Clear
11:35 PM 64.6 °F - 30.6 °F 28% 29.77 in 10.0 mi South 23.0 mph 33.4 mph N/A   Clear
11:55 PM 63.9 °F - 31.1 °F 29% 29.76 in 10.0 mi South 21.9 mph 31.1 mph N/A   Clear